Weather History for Cape Girardeau, MO

Change the Weather History Date:

Wednesday, April 10, 2013

  Actual Average Record
Temperature  
Mean Temperature 74 °F 55 °F  
Max Temperature 84 °F 67 °F 86 °F (1995)
Min Temperature 64 °F 44 °F 26 °F (1966)
Degree Days  
Heating Degree Days 0 10  
Month to date heating degree days 108 118  
Since 1 July heating degree days 4069 4174  
Cooling Degree Days 9 1  
Month to date cooling degree days 17 4  
Year to date cooling degree days 17 8  
Growing Degree Days 23 (Base 50)    
Moisture  
Dew Point 64 °F    
Average Humidity 74    
Maximum Humidity 93    
Minimum Humidity 54    
Precipitation  
Precipitation 0.60 in 0.14 in 1.78 in (1978)
Month to date precipitation 0.60 1.36  
Year to date precipitation 9.77 12.64  
Sea Level Pressure  
Sea Level Pressure 29.78 in    
Wind  
Wind Speed 16 mph (South)    
Max Wind Speed 30 mph    
Max Gust Speed 39 mph    
Visibility 8 miles    
Events Rain , Thunderstorm    
T = Trace of Precipitation, MM = Missing Value Source: NWS Daily Summary

Daily Weather History Graph

Daily Weather History Graph

Search for Another Location

Airport:

Trip Planner

Search our weather history database for the weather conditions in past years. The results will help you decide how hot, cold, wet, or windy it might be!

Date:

Astronomy

Apr. 10, 2013 Rise Set
Actual Time 6:30 AM CDT 7:29 PM CDT
Civil Twilight 6:03 AM CDT 7:55 PM CDT
Nautical Twilight 5:32 AM CDT 8:27 PM CDT
Astronomical Twilight 4:59 AM CDT 9:00 PM CDT
Moon 6:27 AM CDT (4/10) 8:03 PM CDT (4/10)
Length of Visible Light 13h 51m
Length of Day
12h 58m
New Moon, 0% of the Moon is Illuminated
Apr 10
New Moon
Apr 18
First Quarter
Apr 25
Full
May 2
Last Quarter
May 9
New

Hourly Weather History & Observations

Time (CDT) Temp. Heat Index Dew Point Humidity Pressure Visibility Wind Dir Wind Speed Gust Speed Precip Events Conditions
12:53 AM 71.1 °F - 64.0 °F 78% 29.85 in 10.0 mi South 15.0 mph - N/A   Clear
1:53 AM 73.0 °F - 64.0 °F 73% 29.83 in 10.0 mi South 17.3 mph 25.3 mph N/A   Clear
2:53 AM 73.0 °F - 64.0 °F 73% 29.82 in 10.0 mi South 21.9 mph 26.5 mph N/A   Clear
3:53 AM 72.0 °F - 64.0 °F 76% 29.83 in 10.0 mi SSW 17.3 mph 27.6 mph N/A   Scattered Clouds
4:53 AM 71.1 °F - 64.0 °F 78% 29.84 in 10.0 mi South 17.3 mph 21.9 mph N/A   Partly Cloudy
5:53 AM 71.1 °F - 64.0 °F 78% 29.85 in 10.0 mi South 16.1 mph - N/A   Overcast
6:53 AM 71.1 °F - 64.0 °F 78% 29.86 in 10.0 mi South 18.4 mph 26.5 mph N/A   Overcast
7:53 AM 71.1 °F - 64.0 °F 78% 29.87 in 10.0 mi South 15.0 mph - N/A   Mostly Cloudy
8:53 AM 73.0 °F - 64.9 °F 76% 29.88 in 10.0 mi South 18.4 mph 25.3 mph N/A   Overcast
9:53 AM 75.0 °F - 64.9 °F 71% 29.88 in 10.0 mi South 20.7 mph 29.9 mph N/A   Overcast
10:53 AM 75.9 °F - 66.0 °F 71% 29.89 in 10.0 mi South 18.4 mph 29.9 mph N/A   Overcast
11:53 AM 78.8 °F - 66.2 °F 65% 29.89 in 10.0 mi SSW 17.3 mph 24.2 mph N/A   Overcast
12:53 PM 81.0 °F 82.7 °F 64.9 °F 58% 29.85 in 10.0 mi SSW 19.6 mph 32.2 mph N/A   Scattered Clouds
1:53 PM 82.0 °F 83.8 °F 64.9 °F 56% 29.82 in 10.0 mi SSW 16.1 mph 28.8 mph N/A   Scattered Clouds
2:53 PM 82.9 °F 84.4 °F 64.0 °F 53% 29.79 in 10.0 mi SSW 19.6 mph 31.1 mph N/A   Scattered Clouds
3:53 PM 82.9 °F 84.4 °F 64.0 °F 53% 29.75 in 10.0 mi South 17.3 mph 25.3 mph N/A   Mostly Cloudy
4:53 PM 82.0 °F 83.4 °F 64.0 °F 54% 29.72 in 10.0 mi South 17.3 mph 26.5 mph N/A   Mostly Cloudy
5:53 PM 80.1 °F 81.2 °F 62.1 °F 54% 29.68 in 10.0 mi South 17.3 mph 28.8 mph N/A   Partly Cloudy
6:53 PM 78.1 °F - 63.0 °F 60% 29.67 in 10.0 mi SSE 13.8 mph - N/A   Partly Cloudy
7:53 PM 78.1 °F - 62.1 °F 58% 29.66 in 10.0 mi SSE 11.5 mph - N/A   Clear
8:48 PM 75.2 °F - 62.6 °F 65% 29.68 in 10.0 mi SSE 8.1 mph - 0.00 in Rain , Thunderstorm Light Rain
8:53 PM 73.9 °F - 63.0 °F 68% 29.68 in 10.0 mi South 9.2 mph - 0.00 in Thunderstorm Mostly Cloudy
9:53 PM 71.1 °F - 64.0 °F 78% 29.73 in 4.0 mi SW 16.1 mph - 0.04 in Rain , Thunderstorm Thunderstorms and Rain
10:53 PM 64.9 °F - 63.0 °F 93% 29.75 in 3.0 mi WSW 4.6 mph - 0.21 in Rain , Thunderstorm Rain
10:57 PM 64.4 °F - 62.6 °F 94% 29.75 in 3.0 mi West 4.6 mph - 0.01 in Rain , Thunderstorm Rain
11:17 PM 64.4 °F - 62.6 °F 94% 29.74 in 2.5 mi South 5.8 mph - 0.13 in Rain Rain
11:26 PM 64.4 °F - 62.6 °F 94% 29.72 in 2.5 mi ESE 3.5 mph - 0.16 in Rain , Thunderstorm Rain
11:34 PM 64.4 °F - 62.6 °F 94% 29.71 in 4.0 mi East 5.8 mph - 0.19 in Rain , Thunderstorm Rain
11:53 PM 64.0 °F - 63.0 °F 96% 29.69 in 5.0 mi ESE 5.8 mph - 0.21 in Rain Rain